Flag for U.S.A. Weather past 2 weeks in Avalon (Santa Catalina Island), California, U.S.A.

Now
74 °F

Sunny.


Feels Like: 77 °F
Forecast: 67 / 79 °F
Wind: 9 mph from West

Location: Catalina Airport

Current Time: Jul 29, 2014 at 4:41:17 PM

Latest Report: Jul 29, 2014 at 3:51 PM


Visibility: 10 mi

Pressure: 29.96 "Hg

Humidity: 50%

Dew point: 54 °F

Location of Avalon (Santa Catalina Island)Location

Historic Weather in Avalon (Santa Catalina Island) — Graph

°F

Avalon (Santa Catalina Island) temperature yesterday

Maximum temperature yesterday: 83 °F (at 2:51 PM)
Minimum temperature yesterday: 65 °F (at 7:51 AM)
Average temperature yesterday: 74 °F

Past Weeks' High & Low Weather Summary

 TemperatureHumidityPressure
High88 °F (Jul 24, 1:51 PM)97% (Jul 15, 6:51 AM)30.10 "Hg (Jul 15, 6:51 AM)
Low58 °F (Jul 18, 10:51 PM)6% (Jul 27, 10:51 PM)29.74 "Hg (Jul 24, 5:51 PM)
Average68 °F66%29.96 "Hg
* Reported Jul 14 2:51 PM — Jul 29 2:51 PM, Avalon (Santa Catalina Island), Weather by CustomWeather, © 2014

Note: Actual official high and low records may vary slightly from our data, if they occured in-between our weather recording intervals... More about our weather records

Advertising

Avalon (Santa Catalina Island) weather history for previous 24 hours

 ConditionsComfort  
Time TempWeatherWind HumidityBarometerVisibility
2:51 PM
Jul 29
83 °FSunny.7 mph32%29.94 "Hg10 mi
1:51 PM84 °FSunny.12 mph20%29.96 "Hg10 mi
12:51 PM82 °FSunny.12 mph21%29.98 "Hg10 mi
11:51 AM82 °FSunny.12 mph18%29.99 "Hg10 mi
10:51 AM77 °FSunny.7 mph31%30.01 "Hg10 mi
9:51 AM72 °FSunny.8 mph57%30.02 "Hg10 mi
8:51 AM79 °FSunny.7 mph17%30.01 "Hg10 mi
7:51 AM77 °FSunny.9 mph10%30.01 "Hg10 mi
6:51 AM73 °FClear.7 mph13%30.01 "Hg10 mi
5:51 AM73 °FClear.No wind14%29.98 "Hg10 mi
4:51 AM73 °FClear.7 mph15%29.98 "Hg10 mi
3:51 AM74 °FClear.9 mph19%29.98 "Hg10 mi
2:51 AM74 °FClear.3 mph21%29.98 "Hg10 mi
1:51 AM75 °FClear.8 mph17%30.00 "Hg10 mi
12:51 AM74 °FClear.3 mph25%30.00 "Hg10 mi
11:51 PM
Jul 28
73 °FClear.12 mph41%29.99 "Hg10 mi
10:51 PM75 °FClear.10 mph15%30.00 "Hg10 mi
9:51 PM74 °FClear.14 mph14%30.00 "Hg10 mi
8:51 PM72 °FSunny.13 mph20%29.99 "Hg10 mi
7:51 PM71 °FSunny.12 mph36%29.99 "Hg10 mi
6:51 PM71 °FSunny.15 mph47%29.99 "Hg10 mi
5:51 PM74 °FSunny.15 mph37%29.99 "Hg10 mi
4:51 PM80 °FSunny.10 mph18%29.98 "Hg10 mi
Weather by CustomWeather, © 2014

See weather overviewHow to use our weather pages